N0ZJT Weather Reports


Display with metric or nautical units.
time (UTC)temp
F
wind
direction
speed
MPH
gust
MPH
rain 1hr
in
rain 24hr
in
rain mn
in
humidity
%
barometer
mb
20260510114622 43 0 0.0 0.0 0.00 0.00 0.00 53 980.4
20260510113222 42 0 0.0 0.0 0.00 0.00 0.00 53 980.1
20260510111622 42 0 0.0 0.0 0.00 0.00 0.00 52 979.8
20260510110222 42 187 1.0 2.0 0.00 0.00 0.00 52 980.0
20260510104622 43 0 0.0 0.0 0.00 0.00 0.00 50 979.8
20260510103222 43 212 0.0 1.0 0.00 0.00 0.00 49 979.8
20260510101622 43 0 0.0 1.0 0.00 0.00 0.00 49 979.8
20260510100222 44 234 0.0 1.0 0.00 0.00 0.00 49 979.9
20260510094622 44 0 0.0 0.0 0.00 0.00 0.00 48 979.7
20260510093222 45 0 0.0 0.0 0.00 0.00 0.00 47 979.4
20260510091622 45 0 0.0 0.0 0.00 0.00 0.00 46 979.3
20260510090222 45 197 0.0 1.0 0.00 0.00 0.00 46 979.0
20260510084622 45 195 1.0 1.0 0.00 0.00 0.00 46 978.9
20260510083222 46 0 0.0 0.0 0.00 0.00 0.00 47 978.8
20260510081622 46 0 0.0 0.0 0.00 0.00 0.00 47 978.3
20260510080222 46 0 0.0 0.0 0.00 0.00 0.00 45 977.9
20260510074622 47 0 0.0 0.0 0.00 0.00 0.00 44 977.8
20260510073222 47 0 0.0 0.0 0.00 0.00 0.00 44 977.9
20260510071622 48 0 0.0 0.0 0.00 0.00 0.00 43 977.5
20260510070222 48 0 0.0 0.0 0.00 0.00 0.00 42 977.7
20260510064622 49 242 0.0 1.0 0.00 0.00 0.00 41 977.5
20260510063222 49 0 0.0 0.0 0.00 0.00 0.00 41 977.4
20260510061622 50 0 0.0 0.0 0.00 0.00 0.00 40 977.2
20260510060222 50 0 0.0 0.0 0.00 0.00 0.00 38 977.2
20260510054622 51 0 0.0 2.0 0.00 0.00 0.00 37 976.7
20260510053222 51 143 0.0 2.0 0.00 0.00 0.00 37 976.8
20260510051622 51 0 0.0 2.0 0.00 0.00 0.00 36 976.6
20260510050222 52 135 0.0 1.0 0.00 0.00 0.00 35 976.5
20260510044622 52 152 1.0 2.0 0.00 0.00 0.00 34 976.2
20260510043222 53 143 1.0 2.0 0.00 0.00 0.00 34 976.2
20260510041622 53 155 1.0 1.0 0.00 0.00 0.00 33 975.9
20260510040222 54 197 1.0 2.0 0.00 0.00 0.00 33 975.6
20260510034622 54 128 1.0 3.0 0.00 0.00 0.00 33 975.6
20260510033222 55 192 2.0 3.0 0.00 0.00 0.00 32 975.2
20260510031622 55 164 2.0 3.0 0.00 0.00 0.00 32 975.2
20260510030222 56 162 0.0 3.0 0.00 0.00 0.00 31 975.0
20260510024622 56 128 1.0 2.0 0.00 0.00 0.00 31 974.9
20260510023222 57 149 2.0 3.0 0.00 0.00 0.00 30 974.6
20260510021622 58 162 3.0 4.0 0.00 0.00 0.00 29 974.1
20260510020222 59 161 2.0 3.0 0.00 0.00 0.00 29 973.9
20260510014622 59 148 1.0 2.0 0.00 0.00 0.00 28 973.5
20260510013222 60 128 2.0 4.0 0.00 0.00 0.00 27 973.0
20260510011622 61 189 3.0 4.0 0.00 0.00 0.00 26 972.7
20260510010222 62 181 4.0 6.0 0.00 0.00 0.00 26 972.3
20260510004622 63 170 3.0 5.0 0.00 0.00 0.00 25 972.1
20260510003222 64 186 3.0 5.0 0.00 0.00 0.00 26 971.8
20260510001622 65 73 4.0 11.0 0.00 0.00 0.00 25 971.8
20260510000222 65 174 5.0 10.0 0.00 0.00 0.00 25 971.6
20260509234622 66 197 3.0 10.0 0.00 0.00 0.00 25 971.1
20260509233222 67 101 4.0 9.0 0.00 0.00 0.00 24 971.0
20260509231622 67 180 3.0 5.0 0.00 0.00 0.00 25 970.9
20260509230222 68 138 2.0 4.0 0.00 0.00 0.00 25 970.7
20260509224622 68 208 5.0 11.0 0.00 0.00 0.00 25 970.5
20260509223222 69 100 4.0 14.0 0.00 0.00 0.00 25 970.4
20260509221622 69 164 6.0 8.0 0.00 0.00 0.00 26 970.2
20260509220222 69 161 3.0 9.0 0.00 0.00 0.00 26 970.0
20260509214622 70 183 4.0 6.0 0.00 0.00 0.00 26 969.8
20260509213222 70 181 10.0 13.0 0.00 0.00 0.00 27 969.8
20260509211622 71 220 4.0 11.0 0.00 0.00 0.00 30 969.8
20260509210222 71 167 9.0 15.0 0.00 0.00 0.00 28 969.8
20260509204622 71 72 4.0 8.0 0.00 0.00 0.00 29 969.4
20260509203222 71 98 3.0 8.0 0.00 0.00 0.00 29 969.5
20260509201622 71 169 6.0 13.0 0.00 0.00 0.00 30 969.3
20260509200222 72 76 4.0 11.0 0.00 0.00 0.00 29 969.0
20260509194622 72 225 6.0 15.0 0.00 0.00 0.00 30 969.0
20260509193222 72 204 9.0 18.0 0.00 0.00 0.00 29 968.8
20260509191622 72 61 5.0 13.0 0.00 0.00 0.00 31 968.7
20260509190222 72 149 8.0 13.0 0.00 0.00 0.00 32 968.6
20260509184622 71 119 7.0 20.0 0.00 0.00 0.00 33 968.3
20260509183222 71 179 9.0 12.0 0.00 0.00 0.00 34 968.3
20260509181622 70 128 6.0 9.0 0.00 0.00 0.00 36 968.3
20260509180222 70 91 10.0 15.0 0.00 0.00 0.00 38 968.3
20260509174622 69 108 6.0 9.0 0.00 0.00 0.00 39 968.3
20260509173222 68 42 11.0 19.0 0.00 0.00 0.00 43 968.1
20260509171622 68 84 10.0 17.0 0.00 0.00 0.00 44 968.1
20260509170222 67 133 9.0 19.0 0.00 0.00 0.00 43 968.1
20260509164622 66 97 8.0 10.0 0.00 0.00 0.00 47 968.2
20260509163222 64 99 10.0 14.0 0.00 0.00 0.00 46 968.3
20260509161622 63 134 4.0 12.0 0.00 0.00 0.00 44 968.2
20260509160222 62 86 4.0 13.0 0.00 0.00 0.00 46 968.1
20260509154622 60 196 2.0 6.0 0.00 0.00 0.00 46 968.2
20260509153222 60 110 4.0 10.0 0.00 0.00 0.00 44 968.0
20260509151622 60 97 4.0 6.0 0.00 0.00 0.00 43 968.0
20260509150222 60 112 4.0 5.0 0.00 0.00 0.00 42 967.7
20260509144622 59 97 4.0 6.0 0.00 0.00 0.00 43 967.7
20260509143222 58 86 3.0 6.0 0.00 0.00 0.00 43 967.7
20260509141622 58 104 8.0 17.0 0.00 0.00 0.00 41 967.7
20260509140222 58 182 2.0 8.0 0.00 0.00 0.00 43 967.8
20260509134622 58 72 2.0 6.0 0.00 0.00 0.00 44 967.7
20260509133222 58 172 4.0 8.0 0.00 0.00 0.00 44 967.7
20260509131622 57 73 5.0 8.0 0.00 0.00 0.00 47 967.2
20260509130222 56 95 3.0 5.0 0.00 0.00 0.00 47 966.8
20260509124622 55 85 2.0 3.0 0.00 0.00 0.00 49 966.8
20260509123222 54 92 2.0 4.0 0.00 0.00 0.00 50 966.4
20260509121622 53 96 1.0 4.0 0.00 0.00 0.00 51 966.3
20260509120222 51 0 0.0 2.0 0.00 0.00 0.00 52 966.3